Location: C�mpuri de-Sus
(45.9500°N, 22.5500°E)
Time: 06:08:18
(UTC+00:00)

COSMO-SKYMED 1 - Pass Details

Date: 24 October 2021
Orbit: 621 x 623 km, 97.9° (Epoch: 04 December)

Event Time Altitude Azimuth Distance (km) Brightness Sun altitude
Rises 16:12:59 0° 19° (NNE) 2,916 5.7 -8.4°
Reaches altitude 10° 16:15:17 10° 25° (NNE) 2,004 4.9 -8.8°
Maximum altitude 16:19:28 45° 99° (E) 859 2.9 -9.5°
Drops below altitude 10° 16:23:36 10° 172° (S) 1,987 5.2 -10.3°
Sets 16:25:52 0° 179° (S) 2,888 6.1 -10.6°
